WS6A-13 Weather Reports


time (UTC)temp
C
wind
direction
speed
KPH
gust
KPH
rain 1hr
cm
rain 24hr
cm
rain mn
cm
humidity
%
barometer
mb
20260509190004 21 242 0.0 4.8 0.00 0.86 0.84 66 1006.6
20260509184504 21 242 0.0 4.8 0.00 0.86 0.84 68 1006.8
20260509183005 21 253 1.6 9.7 0.00 0.86 0.84 66 1006.9
20260509181504 21 242 1.6 8.0 0.00 0.86 0.84 65 1006.9
20260509180004 21 240 0.0 8.0 0.00 0.86 0.84 67 1006.8
20260509174504 20 245 1.6 4.8 0.00 0.86 0.84 67 1006.8
20260509173004 20 233 1.6 4.8 0.00 0.86 0.84 74 1007.0
20260509164504 18 267 0.0 4.8 0.00 0.86 0.84 76 1007.3
20260509161504 18 250 0.0 8.0 0.00 0.86 0.84 74 1007.2
20260509160003 18 201 0.0 4.8 0.00 0.86 0.84 78 1007.1
20260509154504 17 247 0.0 4.8 0.00 0.86 0.84 78 1007.1
20260509153004 17 69 0.0 4.8 0.00 0.86 0.84 82 1007.1
20260509151503 16 252 0.0 1.6 0.00 0.86 0.84 85 1007.1
20260509150004 16 248 0.0 3.2 0.00 0.86 0.84 85 1006.7
20260509144504 16 48 1.6 8.0 0.00 0.86 0.84 88 1006.7
20260509143004 15 252 0.0 1.6 0.00 0.86 0.84 93 1006.6
20260509141504 15 235 0.0 4.8 0.00 0.86 0.84 92 1006.7
20260509140005 14 216 1.6 4.8 0.00 0.86 0.84 94 1006.8
20260509133004 13 202 0.0 4.8 0.00 0.86 0.84 95 1006.8
20260509131504 13 200 0.0 0.0 0.00 0.86 0.84 96 1006.9
20260509130004 13 200 0.0 0.0 0.00 0.86 0.84 95 1006.8
20260509124504 12 200 0.0 0.0 0.00 0.86 0.84 95 1006.6
20260509123004 12 200 0.0 0.0 0.00 0.86 0.84 95 1006.4
20260509120004 12 248 0.0 0.0 0.03 0.86 0.84 95 1006.6
20260509114504 12 248 0.0 0.0 0.05 0.86 0.84 95 1006.1
20260509113003 12 248 0.0 0.0 0.10 0.86 0.84 95 1006.3
20260509111503 12 248 0.0 0.0 0.18 0.86 0.84 95 1006.5
20260509110004 12 248 0.0 0.0 0.18 0.84 0.81 95 1006.8
20260509103004 12 248 0.0 0.0 0.18 0.76 0.74 95 1006.7
20260509101503 12 248 0.0 0.0 0.15 0.69 0.66 95 1006.8
20260509100005 12 129 0.0 0.0 0.18 0.66 0.64 94 1006.8
20260509094504 12 129 0.0 0.0 0.18 0.61 0.58 94 1007.0
20260509093004 12 129 0.0 0.0 0.18 0.58 0.56 94 1007.1
20260509091505 12 129 0.0 0.0 0.15 0.53 0.51 94 1007.5
20260509090004 12 129 0.0 0.0 0.15 0.48 0.46 94 1007.7
20260509084503 12 129 0.0 0.0 0.10 0.43 0.41 94 1007.7
20260509083004 12 129 0.0 0.0 0.08 0.41 0.38 94 1007.8
20260509081504 12 129 0.0 0.0 0.08 0.38 0.36 94 1007.7
20260509080004 12 129 0.0 0.0 0.05 0.33 0.30 93 1007.5
20260509071504 12 129 0.0 0.0 0.13 0.30 0.28 93 1008.0
20260509070004 12 126 0.0 1.6 0.10 0.28 0.25 92 1008.1
20260509064504 12 193 0.0 0.0 0.10 0.25 0.23 92 1008.4
20260509063004 12 201 0.0 0.0 0.13 0.23 0.20 92 1008.4
20260509061504 12 201 0.0 0.0 0.10 0.18 0.15 92 1008.2
20260509060004 12 201 0.0 0.0 0.13 0.18 0.15 91 1008.4
20260509054504 12 201 0.0 0.0 0.10 0.15 0.13 91 1008.5
20260509051504 12 201 0.0 0.0 0.03 0.08 0.05 90 1008.7
20260509050004 12 201 0.0 0.0 0.03 0.05 0.03 90 1008.9
20260509044503 12 201 0.0 0.0 0.00 0.05 0.03 90 1008.9
20260509043004 12 201 0.0 0.0 0.00 0.05 0.03 90 1009.0
20260509041521 12 201 0.0 0.0 0.00 0.05 0.03 89 1009.1
20260509040004 12 201 0.0 0.0 0.00 0.03 0.00 89 1009.2
20260509034503 12 201 0.0 0.0 0.00 0.03 0.03 88 1009.0
20260509033004 12 201 0.0 0.0 0.00 0.03 0.03 88 1009.2
20260509031504 13 201 0.0 0.0 0.00 0.03 0.03 87 1009.2
20260509030004 13 201 0.0 0.0 0.00 0.03 0.03 87 1009.2
20260509023004 13 201 0.0 0.0 0.00 0.03 0.03 87 1009.2
20260509021503 13 201 0.0 0.0 0.03 0.03 0.03 86 1009.4
20260509013004 13 201 0.0 0.0 0.03 0.03 0.03 85 1008.9
20260509011504 13 201 0.0 0.0 0.00 0.00 0.00 86 1009.0
20260509004504 13 202 0.0 0.0 0.00 0.00 0.00 83 1008.4
20260509003004 13 202 0.0 0.0 0.00 0.00 0.00 85 1008.3
20260509001504 14 201 0.0 0.0 0.00 0.00 0.00 84 1008.3
20260508234503 15 201 0.0 0.0 0.00 0.00 0.00 81 1008.6
20260508233004 15 202 0.0 0.0 0.00 0.00 0.00 78 1008.5
20260508231503 16 202 0.0 0.0 0.00 0.00 0.00 75 1008.4
20260508230004 16 202 0.0 0.0 0.00 0.00 0.00 69 1008.2
20260508223004 17 202 0.0 0.0 0.00 0.00 0.00 68 1008.2
20260508220004 17 202 0.0 0.0 0.00 0.00 0.00 64 1008.2
20260508213004 18 202 0.0 0.0 0.00 0.00 0.00 61 1008.3
20260508210003 18 202 0.0 0.0 0.00 0.00 0.00 61 1008.7
20260508204504 18 157 0.0 8.0 0.00 0.00 0.00 56 1008.8
20260508201504 18 255 0.0 4.8 0.00 0.00 0.00 51 1009.1
20260508200004 19 261 0.0 4.8 0.00 0.00 0.00 52 1009.2
20260508194503 20 253 1.6 4.8 0.00 0.00 0.00 48 1009.2
20260508193004 20 277 0.0 8.0 0.00 0.00 0.00 49 1009.4